Regional Weather Roundup
Issued by NWS Austin/San Antonio, TX

Home | Current Version | Previous Version | Text Only | Print | Product List | Glossary On
Versions: 1 2 3 4 5 6 7 8 9 10 11 12 13 14 15 16 17 18 19 20 21 22 23 24 25 26 27 28 29 30 31 32 33 34 35 36 37 38 39 40 41 42 43 44 45 46 47 48 49 50
955
ASUS44 KEWX 170401
RWREWX
SOUTH TEXAS REGIONAL WEATHER ROUNDUP
NATIONAL WEATHER SERVICE AUSTIN/SAN ANTONIO TX
1000 PM CST TUE JAN 16 2018

NOTE: "FAIR" INDICATED FEW OR NO CLOUDS BELOW 12,000 FEET WITH NO
SIGNIFICANT WEATHER AND/OR OBSTRUCTIONS TO VISIBILITY.

* - THESE STATIONS ARE NOT NWS OR FAA STATIONS...AND ARE NOT SUBJECT
    TO NWS AND FAA QUALITY CONTROL.

TXZ171-172-183>190-170500-
TEXAS HILL COUNTRY AND EDWARDS PLATEAU

CITY           SKY/WX    TMP DP  RH WIND       PRES   REMARKS
JUNCTION       CLOUDY    27  -2  28 N7        30.66S WCI  19
*LLANO         CLOUDY    30   1  29 N7        30.75S WCI  23
BURNET         CLOUDY    26   1  34 N8        30.71S WCI  18
*HORSESHOE BAY CLOUDY    28   5  36 N6        30.70F WCI  22
*KERRVILLE     CLOUDY    25   1  36 N6        30.66S WCI  18
*FREDERICKSBRG CLOUDY    26  -3  28 N8        30.66S WCI  17
*ROCKSPRINGS     N/A     25  -4  28 N7G13     30.66S WCI  17
*BOERNE STAGE  CLOUDY    27   3  36 N10       30.67S WCI  17
*CASTROVILLE   CLOUDY    30   9  40 N8        30.72S WCI  22
HONDO          CLOUDY    30  15  53 NE6       30.70S WCI  24
*UVALDE        CLOUDY    32   4  30 N7        30.72R WCI  26
DEL RIO        CLOUDY    34   1  24 N5        30.71R WCI  30
LAUGHLIN AFB   CLOUDY    33  -2  21 N7        30.70R WCI  27
CARRIZO SPRGS  CLOUDY    34  14  44 CALM      30.72R
*EAGLE PASS    CLOUDY    36   1  23 NW5       30.71R WCI  32
*FAITH RANCH   CLOUDY    34  14  44 N3        30.72R
$$

TXZ173-191>194-202-209-217>225-228-170500-
CENTRAL AND SOUTH CENTRAL TEXAS

CITY           SKY/WX    TMP DP  RH WIND       PRES   REMARKS
GEORGETOWN     CLOUDY    26   7  44 N6        30.74S WCI  19
AUSTIN/BERGSTM CLOUDY    27  13  55 N9        30.73S WCI  18
AUSTIN/MABRY   CLOUDY    28   5  37 VRB6      30.74S WCI  22
*AUSTIN/EXEC   CLOUDY    27   7  43 N9        30.74R WCI  17
*LAGO VISTA    CLOUDY    27   4  37 MISG      30.69S
SAN MARCOS     CLOUDY    27  12  53 N14       30.73S WCI  16
NEW BRAUNFELS  CLOUDY    27   9  46 N13       30.70F WCI  16
RANDOLPH AFB   CLOUDY    29   6  37 N12       30.70S WCI  19
PT SAN ANTONIO CLOUDY    29   6  36 N10       30.69R WCI  20
SAN ANTONIO    CLOUDY    28   6  39 N9        30.70S WCI  19
STINSON FIELD  CLOUDY    31   8  38 N8        30.71R WCI  23
*LA GRANGE     CLOUDY    28  13  53 N7        30.72R WCI  20
*GIDDINGS      CLOUDY    25  11  54 N6        30.74R WCI  18
*GONZALES      CLOUDY    26  14  60 N8        30.73S WCI  18
$$

TXZ163>164-176>182-195>201-210>213-226-227-235-170500-
SOUTHEAST TEXAS

CITY           SKY/WX    TMP DP  RH WIND       PRES   REMARKS
COLLEGE STN    CLOUDY    25  10  53 N14       30.74R WCI  13
*BRYAN         CLOUDY    23   9  55 N6        30.76R WCI  15
*CALDWELL      CLOUDY    24  10  54 N8        30.75S WCI  15
*CROCKETT        N/A     19   9  63 CALM      30.77R
*BRENHAM       CLOUDY    27  15  60 N13       30.74S WCI  16
HUNTSVILLE     MOCLDY    23  10  57 VRB7      30.72R WCI  15
CONROE         CLOUDY    25  14  63 N7        30.72R WCI  17
HOUSTON BUSH   CLOUDY    26  17  68 N15       30.72R WCI  14
HOUSTON HOBBY  CLOUDY    26  18  71 N18       30.71R WCI  13
*HOUSTON SW AP CLOUDY    26  20  78 MISG      30.73R
PEARLAND       CLOUDY    26  19  74 N12       30.73R WCI  16
HOUSTON HOOKS  CLOUDY    26  16  65 N8        30.72R WCI  18
ELLINGTON FLD  CLOUDY    27  18  69 N5        30.73R WCI  21
SUGAR LAND     CLOUDY    27  17  66 N13       30.71R WCI  16
*HOUSTON EXEC  CLOUDY    25  18  74 CALM      30.73S
*CLEVELAND MUN CLOUDY    25  12  57 N12       30.73R WCI  15
*WHARTON       CLOUDY    26  18  74 CALM      30.73R
*COLUMBUS      CLOUDY    26  14  61 N9        30.74R WCI  16
*EAGLE LAKE    CLOUDY    26  17  68 MISG      30.73R
$$

TXZ214>216-236>238-170500-
THE UPPER TEXAS COAST

CITY           SKY/WX    TMP DP  RH WIND       PRES   REMARKS
*ORANGE        CLOUDY    28  23  82 N8G17     30.69R WCI  20
PORT ARTHUR    MOCLDY    27  20  75 N17G26    30.68R WCI  14
GALVESTON      CLOUDY    30  22  72 N23G31    30.69R WCI  17
ANGLETON       CLOUDY    27  19  72 N17       30.70R WCI  14
*BAY CITY      CLOUDY    27  22  83 N10       30.71R WCI  17
PALACIOS       CLOUDY    27  21  78 N16G25    30.72R WCI  15
$$

TXZ229>234-239>247-170500-
TEXAS COASTAL BEND AND RIO GRANDE PLAINS

CITY           SKY/WX    TMP DP  RH WIND       PRES   REMARKS
VICTORIA       CLOUDY    27  17  66 N12       30.73R WCI  17
*BEEVILLE      CLOUDY    30  14  50 N7G17     30.73R WCI  23
ROCKPORT       CLOUDY    29  18  63 N16       30.73R WCI  17
*PORT ARANSAS  NOT AVBL
*PORT LAVACA   CLOUDY    27  22  79 N16       30.72S WCI  15
*INGLESIDE     CLOUDY    31  20  62 N14       30.73R WCI  21
CORPUS CHRISTI CLOUDY    30  16  56 N18       30.73R WCI  18
CORPUS NAS     CLOUDY    33  18  53 N23G30    30.72R WCI  21
*ROBSTOWN      NOT AVBL
ALICE          CLOUDY    32  13  45 N14       30.72F WCI  22
KINGSVILLE NAS CLOUDY    32  15  49 N13       30.73R WCI  22
COTULLA        CLOUDY    34   8  33 N9        30.73S WCI  27
LAREDO         CLOUDY    33  20  58 N6        30.73S WCI  28
$$

TXZ248>255-170500-
DEEP SOUTH TEXAS

CITY           SKY/WX    TMP DP  RH WIND       PRES   REMARKS
BROWNSVILLE    NOT AVBL
PORT ISABEL    NOT AVBL
*SOUTH PADRE   NOT AVBL
HARLINGEN      NOT AVBL
*HEBBRONVILLE  CLOUDY    29  25  83 N3        30.71S
MCALLEN        CLOUDY    32  27  80 NW10      30.73F WCI  24
*WESLACO       MIX PCPN  29  26  86 N10G18    30.72R WCI  20
FALFURRIAS     CLOUDY    33  18  54 N6        30.73S WCI  27
EDINBURG       CLOUDY    32  29  88 NW6       30.73S WCI  26
*ZAPATA        CLOUDY    33  25  71 NW5       30.73S WCI  29
$$

TXZ213>215-236>238-242>244-246-247-251-254-255-170500-
CMAN STATIONS

STATION/POSITION TIME  TEMP    WIND        PRES    WAVE
                       AIR SEA DIR/SP/G            HT/PER
                 (UTC) (F)     (DEG/KT/KT) (MB)    (FT/S)
SABINE PASS      0330   30 50  350/ 14/ 21 1040.0
SEA RIM ST PARK  0300   28     360/ 10/ 13 1038.5
NORTH JETTY/GLS  0324      45  360/ 21/ 27 1038.1
EAGLE POINT      0324   28 44   20/  9/ 12 1039.5
MORGANS POINT    0324      47  360/  3/  9 1039.6
PORT O`CONNOR    0330   29 37  360/ 23/ 27 1040.1
MALAQUITE BEACH  0330   31 51  350/ 18/ 22 1039.6
BAFFIN BAY       0330   31 47  330/ 15/ 18 1040.5
PORT ISABEL      0330   31 56  330/ 15/ 20 1037.6
$$




USA.gov is the U.S. government's official web portal to all federal, state and local government web resources and services.